| time (UTC) | temp F | wind direction | speed MPH | gust MPH | rain 1hr in | rain 24hr in | rain mn in | humidity % | barometer mb |
| 20260506071505 | 77 | 122 | 9.0 | 0.0 | 0.00 | 0.00 | 0.00 | 85 | 1007.2 |
| 20260506071212 | 77 | 85 | 18.0 | 0.0 | 0.00 | 0.00 | 0.00 | 85 | 1006.9 |
| 20260506070505 | 77 | 105 | 13.0 | 0.0 | 0.00 | 0.00 | 0.00 | 85 | 1006.9 |
| 20260506062505 | 77 | 104 | 23.0 | 0.0 | 0.00 | 0.00 | 0.00 | 84 | 1007.6 |
| 20260506062213 | 77 | 98 | 13.0 | 0.0 | 0.00 | 0.00 | 0.00 | 83 | 1007.6 |
| 20260506061505 | 77 | 129 | 13.0 | 0.0 | 0.00 | 0.00 | 0.00 | 83 | 1007.6 |
| 20260506061213 | 77 | 79 | 9.0 | 0.0 | 0.00 | 0.00 | 0.00 | 83 | 1007.9 |
| 20260506060712 | 77 | 44 | 9.0 | 0.0 | 0.00 | 0.00 | 0.00 | 83 | 1007.6 |
| 20260506051006 | 77 | 319 | 9.0 | 0.0 | 0.00 | 0.00 | 0.00 | 81 | 1007.9 |
| 20260506050505 | 77 | 65 | 9.0 | 0.0 | 0.00 | 0.00 | 0.00 | 81 | 1008.2 |
| 20260506045004 | 77 | 49 | 18.0 | 0.0 | 0.00 | 0.00 | 0.00 | 80 | 1008.2 |
| 20260506044712 | 77 | 175 | 9.0 | 0.0 | 0.00 | 0.00 | 0.00 | 80 | 1007.9 |
| 20260506044005 | 77 | 149 | 9.0 | 0.0 | 0.00 | 0.00 | 0.00 | 80 | 1007.9 |
| 20260506043505 | 77 | 141 | 9.0 | 0.0 | 0.00 | 0.00 | 0.00 | 80 | 1008.2 |
| 20260506043005 | 77 | 44 | 18.0 | 0.0 | 0.00 | 0.00 | 0.00 | 80 | 1008.2 |
| 20260506042505 | 77 | 88 | 13.0 | 0.0 | 0.00 | 0.00 | 0.00 | 80 | 1008.2 |
| 20260506042213 | 77 | 95 | 9.0 | 0.0 | 0.00 | 0.00 | 0.00 | 80 | 1008.2 |
| 20260506041505 | 77 | 10 | 13.0 | 0.0 | 0.00 | 0.00 | 0.00 | 80 | 1008.2 |
| 20260506041005 | 77 | 82 | 4.0 | 0.0 | 0.00 | 0.00 | 0.00 | 80 | 1008.2 |
| 20260506040505 | 77 | 50 | 4.0 | 0.0 | 0.00 | 0.00 | 0.00 | 80 | 1008.2 |
| 20260506040005 | 77 | 50 | 4.0 | 0.0 | 0.00 | 0.00 | 0.00 | 80 | 1008.2 |
| 20260506035505 | 77 | 105 | 13.0 | 0.0 | 0.00 | 0.00 | 0.00 | 80 | 1008.2 |
| 20260506035005 | 77 | 116 | 9.0 | 0.0 | 0.00 | 0.00 | 0.00 | 79 | 1007.9 |
| 20260506034505 | 77 | 62 | 9.0 | 0.0 | 0.00 | 0.00 | 0.00 | 79 | 1007.9 |
| 20260506034005 | 77 | 116 | 4.0 | 0.0 | 0.00 | 0.00 | 0.00 | 79 | 1007.9 |
| 20260506033506 | 77 | 86 | 18.0 | 0.0 | 0.00 | 0.00 | 0.00 | 79 | 1007.9 |
| 20260506033212 | 78 | 51 | 9.0 | 0.0 | 0.00 | 0.00 | 0.00 | 79 | 1007.6 |
| 20260506032505 | 78 | 58 | 9.0 | 0.0 | 0.00 | 0.00 | 0.00 | 79 | 1007.9 |
| 20260506032005 | 78 | 75 | 27.0 | 0.0 | 0.00 | 0.00 | 0.00 | 79 | 1007.9 |
| 20260506031505 | 78 | 33 | 13.0 | 0.0 | 0.00 | 0.00 | 0.00 | 79 | 1007.9 |
| 20260506031005 | 78 | 172 | 9.0 | 0.0 | 0.00 | 0.00 | 0.00 | 79 | 1007.9 |
| 20260506030505 | 78 | 58 | 18.0 | 0.0 | 0.00 | 0.00 | 0.00 | 79 | 1007.6 |
| 20260506030212 | 78 | 84 | 4.0 | 0.0 | 0.00 | 0.00 | 0.00 | 78 | 1007.6 |
| 20260506025505 | 78 | 136 | 9.0 | 0.0 | 0.00 | 0.00 | 0.00 | 78 | 1007.6 |
| 20260506025005 | 78 | 72 | 4.0 | 0.0 | 0.00 | 0.00 | 0.00 | 78 | 1007.6 |
| 20260506024505 | 78 | 65 | 9.0 | 0.0 | 0.00 | 0.00 | 0.00 | 78 | 1007.2 |
| 20260506024212 | 78 | 90 | 9.0 | 0.0 | 0.00 | 0.00 | 0.00 | 78 | 1007.2 |
| 20260506023504 | 78 | 77 | 9.0 | 0.0 | 0.00 | 0.00 | 0.00 | 78 | 1007.2 |
| 20260506023005 | 78 | 147 | 9.0 | 0.0 | 0.00 | 0.00 | 0.00 | 77 | 1007.2 |
| 20260506022505 | 78 | 92 | 4.0 | 0.0 | 0.00 | 0.00 | 0.00 | 77 | 1007.2 |
| 20260506022005 | 78 | 37 | 13.0 | 0.0 | 0.00 | 0.00 | 0.00 | 77 | 1007.2 |
| 20260506021505 | 78 | 55 | 27.0 | 0.0 | 0.00 | 0.00 | 0.00 | 77 | 1007.2 |
| 20260506021007 | 78 | 170 | 4.0 | 0.0 | 0.00 | 0.00 | 0.00 | 77 | 1007.2 |
| 20260505140505 | 77 | 144 | 9.0 | 0.0 | 0.00 | 0.00 | 0.00 | 80 | 1009.3 |
| 20260505125005 | 74 | 177 | 13.0 | 0.0 | 0.00 | 0.00 | 0.00 | 85 | 1009.3 |
| 20260505124505 | 74 | 165 | 9.0 | 0.0 | 0.00 | 0.00 | 0.00 | 86 | 1009.3 |
| 20260505124005 | 74 | 106 | 4.0 | 0.0 | 0.00 | 0.00 | 0.00 | 86 | 1009.3 |
| 20260505123712 | 74 | 144 | 13.0 | 0.0 | 0.00 | 0.00 | 0.00 | 86 | 1009.3 |
| 20260505123211 | 74 | 94 | 9.0 | 0.0 | 0.00 | 0.00 | 0.00 | 86 | 1009.3 |
| 20260505122505 | 74 | 123 | 9.0 | 0.0 | 0.00 | 0.00 | 0.00 | 86 | 1009.3 |
| 20260505122005 | 74 | 117 | 13.0 | 0.0 | 0.00 | 0.00 | 0.00 | 86 | 1009.3 |
| 20260505121505 | 74 | 99 | 13.0 | 0.0 | 0.00 | 0.00 | 0.00 | 86 | 1009.6 |
| 20260505121005 | 74 | 138 | 18.0 | 0.0 | 0.00 | 0.00 | 0.00 | 86 | 1009.3 |
| 20260505120505 | 74 | 96 | 18.0 | 0.0 | 0.00 | 0.00 | 0.00 | 86 | 1009.3 |
| 20260505120213 | 74 | 141 | 9.0 | 0.0 | 0.00 | 0.00 | 0.00 | 86 | 1008.9 |
| 20260505115504 | 74 | 164 | 9.0 | 0.0 | 0.00 | 0.00 | 0.00 | 86 | 1008.9 |
| 20260505115005 | 74 | 113 | 4.0 | 0.0 | 0.00 | 0.00 | 0.00 | 86 | 1009.3 |
| 20260505114505 | 74 | 170 | 9.0 | 0.0 | 0.00 | 0.00 | 0.00 | 86 | 1009.3 |
| 20260505114005 | 74 | 130 | 4.0 | 0.0 | 0.00 | 0.00 | 0.00 | 86 | 1009.3 |
| 20260505113505 | 74 | 166 | 9.0 | 0.0 | 0.00 | 0.00 | 0.00 | 86 | 1009.3 |
| 20260505113005 | 74 | 138 | 13.0 | 0.0 | 0.00 | 0.00 | 0.00 | 86 | 1008.9 |
| 20260505112712 | 74 | 71 | 9.0 | 0.0 | 0.00 | 0.00 | 0.00 | 86 | 1008.9 |
| 20260505112211 | 74 | 55 | 18.0 | 0.0 | 0.00 | 0.00 | 0.00 | 86 | 1008.9 |
| 20260505111505 | 74 | 143 | 4.0 | 0.0 | 0.00 | 0.00 | 0.00 | 86 | 1009.3 |
| 20260505111005 | 74 | 161 | 9.0 | 0.0 | 0.00 | 0.00 | 0.00 | 86 | 1009.3 |
| 20260505110505 | 74 | 182 | 9.0 | 0.0 | 0.00 | 0.00 | 0.00 | 85 | 1009.6 |
| 20260505102005 | 74 | 80 | 9.0 | 0.0 | 0.00 | 0.00 | 0.00 | 87 | 1009.3 |
| 20260505101505 | 74 | 104 | 0.0 | 0.0 | 0.00 | 0.00 | 0.00 | 87 | 1009.3 |
| 20260505101005 | 74 | 123 | 4.0 | 0.0 | 0.00 | 0.00 | 0.00 | 87 | 1009.3 |
| 20260505100505 | 74 | 20 | 9.0 | 0.0 | 0.00 | 0.00 | 0.00 | 87 | 1009.3 |
| 20260505100212 | 74 | 37 | 27.0 | 0.0 | 0.00 | 0.00 | 0.00 | 87 | 1009.3 |
| 20260505095505 | 74 | 171 | 9.0 | 0.0 | 0.00 | 0.00 | 0.00 | 87 | 1009.3 |
| 20260505095005 | 74 | 96 | 9.0 | 0.0 | 0.00 | 0.00 | 0.00 | 87 | 1009.3 |
| 20260505094505 | 74 | 117 | 9.0 | 0.0 | 0.00 | 0.00 | 0.00 | 87 | 1009.3 |
| 20260505094005 | 74 | 80 | 13.0 | 0.0 | 0.00 | 0.00 | 0.00 | 86 | 1009.3 |
| 20260505093505 | 74 | 177 | 13.0 | 0.0 | 0.00 | 0.00 | 0.00 | 86 | 1008.9 |
| 20260505093005 | 74 | 55 | 4.0 | 0.0 | 0.00 | 0.00 | 0.00 | 86 | 1008.9 |
| 20260505092505 | 74 | 84 | 18.0 | 0.0 | 0.00 | 0.00 | 0.00 | 86 | 1009.3 |
| 20260505092005 | 74 | 163 | 9.0 | 0.0 | 0.00 | 0.00 | 0.00 | 86 | 1009.6 |
| 20260505091505 | 74 | 169 | 13.0 | 0.0 | 0.00 | 0.00 | 0.00 | 86 | 1009.3 |
| 20260505091005 | 74 | 149 | 23.0 | 0.0 | 0.00 | 0.00 | 0.00 | 86 | 1009.3 |
| 20260505090505 | 74 | 155 | 9.0 | 0.0 | 0.00 | 0.00 | 0.00 | 86 | 1009.3 |
| 20260505090005 | 74 | 67 | 9.0 | 0.0 | 0.00 | 0.00 | 0.00 | 86 | 1009.6 |
| 20260505085505 | 74 | 158 | 9.0 | 0.0 | 0.00 | 0.00 | 0.00 | 86 | 1009.3 |
| 20260505085005 | 74 | 141 | 13.0 | 0.0 | 0.00 | 0.00 | 0.00 | 85 | 1009.3 |
| 20260505084505 | 74 | 73 | 4.0 | 0.0 | 0.00 | 0.00 | 0.00 | 85 | 1009.6 |
| 20260505084005 | 74 | 154 | 13.0 | 0.0 | 0.00 | 0.00 | 0.00 | 85 | 1009.6 |
| 20260505083505 | 74 | 91 | 13.0 | 0.0 | 0.00 | 0.00 | 0.00 | 85 | 1009.9 |
| 20260505083005 | 74 | 148 | 32.0 | 0.0 | 0.00 | 0.00 | 0.00 | 85 | 1009.9 |
| 20260505082505 | 74 | 109 | 9.0 | 0.0 | 0.00 | 0.00 | 0.00 | 85 | 1009.9 |
| 20260505082004 | 74 | 143 | 4.0 | 0.0 | 0.00 | 0.00 | 0.00 | 85 | 1009.9 |
| 20260505081505 | 74 | 160 | 13.0 | 0.0 | 0.00 | 0.00 | 0.00 | 85 | 1009.9 |
| 20260505081005 | 74 | 113 | 13.0 | 0.0 | 0.00 | 0.00 | 0.00 | 85 | 1009.9 |
| 20260505080505 | 74 | 166 | 9.0 | 0.0 | 0.00 | 0.00 | 0.00 | 85 | 1009.9 |
| 20260505080005 | 74 | 131 | 18.0 | 0.0 | 0.00 | 0.00 | 0.00 | 85 | 1010.3 |
| 20260505075505 | 74 | 165 | 13.0 | 0.0 | 0.00 | 0.00 | 0.00 | 86 | 1010.6 |
| 20260505075005 | 74 | 127 | 0.0 | 0.0 | 0.00 | 0.00 | 0.00 | 86 | 1010.3 |
| 20260505074505 | 74 | 138 | 4.0 | 0.0 | 0.00 | 0.00 | 0.00 | 86 | 1010.3 |
| 20260505074005 | 74 | 108 | 0.0 | 0.0 | 0.00 | 0.00 | 0.00 | 86 | 1010.3 |
| 20260505073505 | 74 | 138 | 4.0 | 0.0 | 0.00 | 0.00 | 0.00 | 86 | 1010.3 |
| 20260505073213 | 74 | 131 | 13.0 | 0.0 | 0.00 | 0.00 | 0.00 | 86 | 1010.3 |
| 20260505072712 | 74 | 100 | 9.0 | 0.0 | 0.00 | 0.00 | 0.00 | 86 | 1010.3 |
| 20260505072005 | 73 | 151 | 18.0 | 0.0 | 0.00 | 0.00 | 0.00 | 86 | 1009.9 |